Liberia, Costa Rica

12:25 PM CST on October 22, 2017 (GMT -0600)
Daniel Oduber Quiros International

Weather History for MRLB - January, 2014

Change the Weather History Date:

Friday, January 24, 2014

  Actual Average Record
Temperature  
Mean Temperature 80 °F -  
Max Temperature 91 °F 90 °F 95 °F (2002)
Min Temperature 69 °F 74 °F 62 °F (2011)
Cooling Degree Days 15    
Growing Degree Days 30 (Base 50)    
Moisture  
Dew Point 63 °F    
Average Humidity 49    
Maximum Humidity 73    
Minimum Humidity 32    
Precipitation  
Precipitation 0.00 in - - ()
Sea Level Pressure  
Sea Level Pressure 29.87 in    
Wind  
Wind Speed 15 mph ()    
Max Wind Speed 29 mph    
Max Gust Speed 40 mph    
Visibility 9.1 miles    
Events      
Averages and records for this station are not official NWS values.
T = Trace of Precipitation, MM = Missing Value Source: Averaged Metar Reports

Daily Weather History Graph

Daily Weather History Graph

Search for Another Location

Airport or City:

Trip Planner

Search our weather history database for the weather conditions in past years. The results will help you decide how hot, cold, wet, or windy it might be!

Date:

Astronomy

Jan. 24, 2014 Rise Set
Actual Time 6:05 AM CST 5:43 PM CST
Civil Twilight 5:43 AM CST 6:05 PM CST
Nautical Twilight 5:17 AM CST 6:31 PM CST
Astronomical Twilight 4:52 AM CST 6:56 PM CST
Moon No Moon Rise 11:50 AM CST (1/24)
Length of Visible Light 12h 22m
Length of Day
11h 37m
Last Quarter, 44% of the Moon is Illuminated
Jan 24
Last Quarter
Jan 30
New
Feb 6
First Quarter
Feb 14
Full
Feb 22
Last Quarter

Hourly Weather History & Observations

Time (CST) Temp. Heat Index Dew Point Humidity Pressure Visibility Wind Dir Wind Speed Gust Speed Precip Events Conditions
6:00 AM 73 °F - 65 °F 69% 29.89 in 12 mi ENE 6.9 mph - -   Clear
6:00 AM 73.4 °F - 64.4 °F 73% 29.87 in - ENE 6.9 mph - N/A   Clear
7:00 AM 77.0 °F - 62.6 °F 61% 29.91 in - East 8.1 mph - N/A   Clear
8:00 AM 82.4 °F 83.4 °F 62.6 °F 51% 29.93 in - NE 11.5 mph - N/A   Clear
9:00 AM 85 °F - 63 °F 37% 29.95 in 12 mi East 20.7 mph - -   Clear
9:00 AM 86.0 °F 86.6 °F 62.6 °F 45% 29.93 in - East 20.7 mph - N/A   Clear
10:00 AM 86.0 °F 86.1 °F 60.8 °F 43% 29.94 in - East 24.2 mph 38.0 mph N/A   Clear
11:00 AM 87.8 °F 87.6 °F 60.8 °F 40% 29.92 in - ENE 26.5 mph 38.0 mph N/A   Clear
12:00 PM 89 °F - 63 °F 32% 29.91 in 12 mi ENE 28.8 mph - -  
12:00 PM 89.6 °F 90.1 °F 62.6 °F 40% 29.89 in - ENE 28.8 mph 40.3 mph N/A   Clear
1:00 PM 89.6 °F 92.2 °F 66.2 °F 46% 29.85 in 6.2 mi East 20.7 mph 33.4 mph N/A   Partly Cloudy
2:00 PM 87.8 °F 89.4 °F 64.4 °F 46% 29.83 in 6.2 mi ENE 26.5 mph 38.0 mph N/A   Partly Cloudy
3:00 PM 89 °F - 64 °F 34% 29.82 in 12 mi East 23.0 mph - -   Scattered Clouds
3:00 PM 89.6 °F 91.1 °F 64.4 °F 43% 29.81 in 6.2 mi East 23.0 mph - N/A   Partly Cloudy
4:00 PM 87.8 °F 89.4 °F 64.4 °F 46% 29.79 in 6.2 mi East 20.7 mph 32.2 mph N/A   Partly Cloudy
5:00 PM 84.2 °F 86.6 °F 66.2 °F 55% 29.82 in 6.2 mi East 21.9 mph 33.4 mph N/A   Partly Cloudy
6:00 PM 81 °F - 63 °F 44% 29.84 in 12 mi East 18.4 mph - -   Clear
6:00 PM 80.6 °F 81.8 °F 62.6 °F 54% 29.83 in - East 18.4 mph 29.9 mph N/A   Clear
7:00 PM 80.6 °F 82.3 °F 64.4 °F 58% 29.85 in - East 20.7 mph 33.4 mph N/A   Clear
8:00 PM 78.8 °F - 62.6 °F 57% 29.86 in - East 19.6 mph 32.2 mph N/A   Clear